TimeEST,TemperatureF,Dew PointF,Humidity,Sea Level PressureIn,VisibilityMPH,Wind Direction,Wind SpeedMPH,Gust SpeedMPH,PrecipitationIn,Events,Conditions,WindDirDegrees,DateUTC
12:15 AM,46.4,41.0,81,29.98,10.0,ENE,8.1,-,N/A,,Overcast,70,2013-02-26 05:15:00
12:35 AM,46.4,41.0,81,29.97,10.0,ENE,11.5,-,N/A,,Overcast,60,2013-02-26 05:35:00
12:55 AM,46.4,42.8,87,29.97,10.0,ENE,8.1,-,N/A,,Overcast,70,2013-02-26 05:55:00
1:15 AM,46.4,42.8,87,29.96,7.0,East,10.4,-,N/A,,Overcast,80,2013-02-26 06:15:00
1:35 AM,46.4,42.8,87,29.95,10.0,NE,9.2,-,N/A,,Overcast,50,2013-02-26 06:35:00
1:55 AM,46.4,44.6,93,29.95,10.0,ENE,8.1,-,N/A,Rain,Light Rain,60,2013-02-26 06:55:00
2:15 AM,46.4,44.6,93,29.93,7.0,ENE,10.4,-,0.01,Rain,Rain,70,2013-02-26 07:15:00
2:35 AM,46.4,44.6,93,29.91,7.0,ENE,9.2,-,0.02,Rain,Light Rain,70,2013-02-26 07:35:00
2:55 AM,48.2,46.4,93,29.90,5.0,ENE,8.1,-,0.03,Rain,Rain,70,2013-02-26 07:55:00
3:15 AM,48.2,44.6,87,29.90,5.0,NE,5.8,-,N/A,,Drizzle,40,2013-02-26 08:15:00
3:35 AM,46.4,44.6,93,29.88,4.0,NE,6.9,-,0.01,Rain,Light Rain,50,2013-02-26 08:35:00
3:55 AM,46.4,44.6,93,29.87,4.0,NNE,5.8,-,0.02,Rain,Rain,30,2013-02-26 08:55:00
4:15 AM,46.4,44.6,93,29.87,4.0,NE,5.8,-,N/A,Rain,Light Rain,40,2013-02-26 09:15:00
4:35 AM,48.2,46.4,93,29.85,3.0,ENE,8.1,-,0.07,Rain,Heavy Rain,60,2013-02-26 09:35:00
4:55 AM,48.2,46.4,93,29.83,5.0,ENE,8.1,-,0.13,Rain,Light Rain,60,2013-02-26 09:55:00
5:15 AM,48.2,46.4,93,29.84,7.0,NE,5.8,-,0.01,Rain,Light Rain,40,2013-02-26 10:15:00
5:35 AM,48.2,46.4,93,29.81,7.0,ENE,12.7,19.6,0.03,Rain,Light Rain,70,2013-02-26 10:35:00
5:55 AM,50.0,48.2,94,29.81,7.0,ENE,8.1,-,0.03,Rain,Light Rain,70,2013-02-26 10:55:00
6:15 AM,50.0,48.2,94,29.80,7.0,East,9.2,-,N/A,,Overcast,90,2013-02-26 11:15:00
6:35 AM,50.0,48.2,94,29.79,7.0,East,8.1,-,N/A,,Light Drizzle,80,2013-02-26 11:35:00
6:55 AM,51.8,50.0,94,29.78,5.0,East,6.9,-,0.01,Rain,Light Rain,80,2013-02-26 11:55:00
7:15 AM,51.8,50.0,94,29.78,5.0,East,8.1,-,N/A,,Light Drizzle,80,2013-02-26 12:15:00
7:35 AM,51.8,50.0,94,29.75,4.0,ENE,6.9,-,0.03,Rain,Rain,60,2013-02-26 12:35:00
7:55 AM,53.6,51.8,94,29.76,2.5,ENE,8.1,-,0.10,Rain,Rain,60,2013-02-26 12:55:00
8:15 AM,53.6,51.8,94,29.77,3.0,NE,6.9,-,0.06,Rain,Heavy Rain,40,2013-02-26 13:15:00
8:35 AM,55.4,53.6,94,29.76,1.2,NNE,9.2,-,0.24,Rain,Heavy Rain,20,2013-02-26 13:35:00
8:55 AM,57.2,55.4,94,29.77,1.5,Calm,Calm,-,0.47,Rain-Thunderstorm,Thunderstorms and Rain,0,2013-02-26 13:55:00
9:15 AM,57.2,55.4,94,29.75,2.5,NNE,5.8,-,0.13,Rain,Heavy Rain,20,2013-02-26 14:15:00
9:35 AM,57.2,55.4,94,29.77,0.8,NW,5.8,-,0.48,Rain,Heavy Rain,310,2013-02-26 14:35:00
9:55 AM,57.2,55.4,94,29.78,4.0,NE,3.5,-,0.75,Rain,Rain,50,2013-02-26 14:55:00
10:15 AM,59.0,57.2,94,29.78,1.5,SE,3.5,-,0.16,Rain,Heavy Rain,130,2013-02-26 15:15:00
10:35 AM,59.0,57.2,94,29.72,1.0,ENE,4.6,-,0.32,Rain,Light Rain,60,2013-02-26 15:35:00
10:55 AM,60.8,59.0,94,29.71,4.0,ESE,3.5,-,0.35,Rain,Rain,120,2013-02-26 15:55:00
11:15 AM,62.6,60.8,94,-9999,5.0,Calm,Calm,-,0.04,Rain-Thunderstorm,Light Thunderstorms and Rain,0,2013-02-26 16:15:00
11:35 AM,64.4,62.6,94,29.70,5.0,SSE,3.5,-,0.07,Rain,Heavy Rain,160,2013-02-26 16:35:00
11:55 AM,68.0,66.2,94,29.68,10.0,South,13.8,19.6,0.07,,Overcast,190,2013-02-26 16:55:00
12:15 PM,69.8,66.2,88,29.66,7.0,South,13.8,21.9,N/A,,Overcast,190,2013-02-26 17:15:00
12:35 PM,71.6,64.4,78,29.64,7.0,SSW,13.8,28.8,N/A,,Overcast,200,2013-02-26 17:35:00
12:55 PM,73.4,64.4,73,29.62,10.0,South,17.3,32.2,N/A,,Overcast,190,2013-02-26 17:55:00
1:15 PM,73.4,64.4,73,29.61,7.0,SSW,19.6,32.2,N/A,,Overcast,200,2013-02-26 18:15:00
1:35 PM,73.4,64.4,73,29.60,7.0,SSW,20.7,31.1,N/A,,Mostly Cloudy,200,2013-02-26 18:35:00
1:55 PM,75.2,64.4,69,29.58,5.0,SSW,24.2,36.8,N/A,,Haze,200,2013-02-26 18:55:00
2:15 PM,73.4,64.4,73,29.57,7.0,SSW,21.9,35.7,N/A,,Overcast,200,2013-02-26 19:15:00
2:35 PM,73.4,64.4,73,29.58,7.0,SSW,20.7,29.9,N/A,,Overcast,200,2013-02-26 19:35:00
2:55 PM,73.4,64.4,73,29.58,7.0,SSW,18.4,24.2,N/A,,Scattered Clouds,210,2013-02-26 19:55:00
3:15 PM,73.4,62.6,69,29.58,7.0,SSW,21.9,29.9,N/A,,Clear,210,2013-02-26 20:15:00
3:35 PM,73.4,60.8,65,29.58,10.0,SW,20.7,25.3,N/A,,Clear,220,2013-02-26 20:35:00
3:55 PM,71.6,60.8,69,29.59,7.0,SSW,15.0,23.0,N/A,,Clear,210,2013-02-26 20:55:00
4:15 PM,71.6,62.6,73,29.59,7.0,SW,13.8,18.4,N/A,,Clear,220,2013-02-26 21:15:00
4:35 PM,73.4,62.6,69,29.58,7.0,SSW,10.4,18.4,N/A,,Clear,210,2013-02-26 21:35:00
5:15 PM,73.4,62.6,69,29.58,7.0,SSW,11.5,-,N/A,,Scattered Clouds,210,2013-02-26 22:15:00
5:35 PM,71.6,62.6,73,29.57,7.0,SSW,12.7,19.6,N/A,,Clear,200,2013-02-26 22:35:00
6:15 PM,69.8,59.0,68,29.58,7.0,SSW,9.2,-,N/A,,Clear,200,2013-02-26 23:15:00
6:35 PM,68.0,59.0,73,29.59,10.0,SSW,6.9,-,N/A,,Clear,200,2013-02-26 23:35:00
7:15 PM,66.2,59.0,78,29.62,10.0,SSW,6.9,-,N/A,,Clear,200,2013-02-27 00:15:00
7:35 PM,66.2,59.0,78,29.63,10.0,SSW,5.8,-,N/A,,Clear,200,2013-02-27 00:35:00
8:15 PM,64.4,57.2,77,29.64,10.0,SW,3.5,-,N/A,,Clear,220,2013-02-27 01:15:00
8:35 PM,62.6,55.4,77,29.64,10.0,SSW,4.6,-,N/A,,Clear,210,2013-02-27 01:35:00
8:55 PM,64.4,55.4,73,29.65,10.0,SSW,6.9,-,N/A,,Clear,200,2013-02-27 01:55:00
9:15 PM,62.6,55.4,77,29.66,10.0,SW,5.8,-,N/A,,Clear,220,2013-02-27 02:15:00
9:35 PM,60.8,55.4,82,29.67,7.0,SW,4.6,-,N/A,,Clear,220,2013-02-27 02:35:00
9:55 PM,62.6,55.4,77,29.68,10.0,SW,4.6,-,N/A,,Clear,230,2013-02-27 02:55:00
10:15 PM,60.8,55.4,82,29.69,10.0,NNW,6.9,-,N/A,,Clear,330,2013-02-27 03:15:00
10:35 PM,57.2,55.4,94,29.70,7.0,NNW,5.8,-,N/A,,Scattered Clouds,340,2013-02-27 03:35:00
10:55 PM,57.2,53.6,88,29.71,5.0,Calm,Calm,-,N/A,,Mostly Cloudy,0,2013-02-27 03:55:00
11:15 PM,57.2,53.6,88,29.70,7.0,North,4.6,-,N/A,,Overcast,350,2013-02-27 04:15:00
11:35 PM,57.2,53.6,88,29.71,7.0,Calm,Calm,-,N/A,,Overcast,0,2013-02-27 04:35:00
11:55 PM,55.4,53.6,94,29.71,7.0,Calm,Calm,-,N/A,,Overcast,0,2013-02-27 04:55:00